STARLINK-36436, 67626

Orbit data source: Space-Track

STARLINK-36436, 67626 is a payload satellite owned by SpaceX/Seattle (US) in LEO that was launched on Fri, 30 Jan 2026 UTC via an FALCON 9 launch vehicle from the Air Force Eastern Test Range (AFETR). Payload-class satellites include a variety of spacecraft equipped with specific instruments for various scientific and technological missions. These include communications satellites like Starlink; space stations such as the ISS; scientific satellites like the Hubble; Earth observation satellites from companies like Planet Labs, Umbra, and HawkEye 360; GPS; miniature CubeSats for education and research; and military/defense satellites.

Loading next visibility...
Identifier
67626, 2026-020K
Orbit
LEO
Country
Flag of USUS
Related business
Manufacturer
SpaceX/Seattle
Mission
Operational Commercial Communications
Bus & Motor
STARLINK V2MO, Unknown motor
Mass
575 kg wet, ~530 kg dry
Launch date (UTC)
2026-01-30 (5 months ago)
Launch vehicle
FALCON 9
Launch site
Air Force Eastern Test Range (AFETR)
Object type
Payload
Rocket body
Debris
Shape & HBR
Box + 2 Pan, 17.7 m
Radar Cross Section
36.964 m², Large (>1 m²)

Expand to show TLE details & history
Last TLE update: 13 hours ago

TLE from 13 hours ago
0 STARLINK-36436
1 67626U 26020K   26171.32831845  .00009740  00000-0  36291-3 0  9992
2 67626  42.9956 279.8826 0001662 285.3818  74.6850 15.27587677 21813
Epoch: 2026-06-20T07:52Z
TLE epoch observation values (Epoch: 2026-06-20T07:52:46.714Z)
Latitude
0.00001°
Longitude
-106.85655°
Altitude
482.5 km
Speed
7.626 km/s
True Right ascension
18h 39m 31s
True Declination
0° 00' 00"
Sunlit
Object was in full shadow at epoch
Visualization orbit readout
Latitude
Unknown
Longitude
Unknown
Altitude
Unknown
Speed
Unknown
Apparent Right ascension
Unknown
Apparent Declination
Unknown
Sunlit
N/A
Visualization observer readout
Local Sidereal Time
07:23:44
Azimuth
Unknown
Elevation
Unknown
Doppler factor
Unknown
Orbital elements
Apogee altitude
486.113 km
Perigee altitude
483.831 km
Semi-major axis
6,863.109 km
Eccentricity
0.00017
Inclination
42.9956°
RAAN
279.8826°
Arg. of periapsis
285.3818°
True anomaly
74.70337°
Mean anomaly
74.685°
Eccentric anomaly
74.69418°
Mean motion
3.81735 °/min
Orbital period
94.31 mins
BSTAR
0.00036291
Loading maneuver chart data...
Computing Atmospheric mass density...
Loading historical data...
Loading historical data...
Loading historical data...
Loading historical data...
Loading historical data...
Loading historical data...
Loading historical data...

Documentation

Showing up to 5 results
|